User: anonymous   Login
Location: Norwich
(52.6280°N, 1.3030°E)
Time: 17:17:10
(UTC+01:00)
Language:

Meteor 1-22 Rocket - Orbit

View from above orbital plane
View from above orbital plane
View from above satellite
View from above satellite

Ground track
Ground track

The orbit data is extracted from the following two-line orbital elements,

1 08294U 75087B   15247.55206855 -.00000002  00000-0 -85803-5 0  9998
2 08294  81.2058 297.6947 0107680  79.7708 281.5584 14.08499272 53112
Epoch (UTC): 04 September 2015 13:14:58
Eccentricity: 0.0107680
inclination: 81.2058°
perigee height: 786 km
apogee height: 942 km
right ascension of ascending node: 297.6947°
argument of perigee: 79.7708°
revolutions per day: 14.08499272
mean anomaly at epoch: 281.5584°
orbit number at epoch: 5311

The dashed part of the orbit path shows where the satellite is in the earth's shadow,  

DLR